"Pseudo-MPEC" for P11Osd5

Created 2023 Nov 30 6:22:05 UT using Find_Orb

Click here for an explanation of pseudo-MPECs

 
 Astrometry: 
     P11Osd5* C2023 11 19wtKa/Zd7.EY:OEa[J%AstrometryU$qxLCNredacted;FVclickvF51
     P11Osd5  C2023 11 19_[sY`4C@xZ(x9C'8_BM/!)gr[9oc9L9xhereaforf1GTAShIQ[l2F51
     P11Osd5  C2023 11 19M+T!n0^[(sNx\g$u??aexplanationQfa_an(0EcW17b@l1PPl2#F51

Station data:
(F51) Pan-STARRS 1, Haleakala  (N20.707234 W156.255910)  US/Hawaii.
   Observers J. Bulger, T. Lowe, A. Schultz, M. Willman. Measurers K.
   Chambers, S. Chastel, T. de Boer, L. Denneau, J. Fairlamb, H. Flewelling,
   M. Huber, C.-C. Lin, E. Magnier, Y. Ramanjooloo, R. Wainscoat, R. Weryk.
   1.8-m Ritchey-Chrétien + CCD.

Orbital elements:  P11Osd5
   Perihelion 2024 Feb 23.99653 +/- 56.4 TT = 23:55:00 (JD 2460364.49653)
Epoch 2023 Nov 20.0 TT = JDT 2460268.5   Earth MOID: 0.1134      AutoNEOCP
M 332.87837201 +/- 21               (J2000 ecliptic)
n   0.28252716 +/- 0.266            Peri.  304.87180 +/- 100
a   2.30018397 +/- 1.44             Node   203.05118 +/- 57
e   0.5495660 +/- 0.246             Incl.    9.18314 +/- 8
P   3.49                   H 21.30  G  0.15   U 11.9  SR
q 1.03608098 +/- 0.554    Q 3.56428696 +/- 62.5
From 3 observations 2023 Nov. 19 (34.1 min); mean residual 0".05
Residuals in arcseconds: 
231119 F51  .03+  .04+    231119 F51  .06-  .08-    231119 F51  .03+  .04+    

Ephemerides (geocentric):
Date (UTC) HH   RA             Dec           delta  r     elong  mag " sig PA
---- --------  ------------   ------------  ------ ------ -----  --- --------
2023 11 30 06  04 57 09.291   +02 08 17.30  .48030 1.4447 158.8 21.3  47d  96
2023 11 30 07  04 57 07.542   +02 07 10.46  .48000 1.4444 158.8 21.3  48d  96
2023 11 30 08  04 57 05.789   +02 06 03.59  .47970 1.4440 158.8 21.3  48d  96
2023 11 30 09  04 57 04.033   +02 04 56.68  .47940 1.4437 158.8 21.3  48d  96
2023 11 30 10  04 57 02.274   +02 03 49.75  .47910 1.4434 158.8 21.3  48d  96
2023 11 30 11  04 57 00.510   +02 02 42.77  .47880 1.4431 158.8 21.3  48d  96
2023 11 30 12  04 56 58.743   +02 01 35.77  .47850 1.4428 158.8 21.3  48d  96
2023 11 30 13  04 56 56.973   +02 00 28.74  .47820 1.4425 158.8 21.3  48d  96
2023 11 30 14  04 56 55.199   +01 59 21.67  .47790 1.4422 158.8 21.3  48d  95
2023 11 30 15  04 56 53.421   +01 58 14.57  .47761 1.4419 158.8 21.3  48d  95
2023 11 30 16  04 56 51.640   +01 57 07.44  .47731 1.4416 158.8 21.3  48d  95
2023 11 30 17  04 56 49.855   +01 56 00.27  .47701 1.4413 158.8 21.3  48d  95
2023 11 30 18  04 56 48.066   +01 54 53.08  .47671 1.4410 158.8 21.3  48d  95
2023 11 30 19  04 56 46.274   +01 53 45.85  .47642 1.4407 158.8 21.3  48d  95
2023 11 30 20  04 56 44.479   +01 52 38.59  .47612 1.4404 158.8 21.3  48d  95
2023 11 30 21  04 56 42.679   +01 51 31.30  .47583 1.4401 158.8 21.3  48d  95
2023 11 30 22  04 56 40.877   +01 50 23.97  .47553 1.4398 158.8 21.3  48d  95
2023 11 30 23  04 56 39.070   +01 49 16.62  .47524 1.4395 158.8 21.3  49d  95
2023 12 01 00  04 56 37.261   +01 48 09.23  .47494 1.4392 158.8 21.3  49d  95
2023 12 01 01  04 56 35.447   +01 47 01.82  .47465 1.4389 158.8 21.3  49d  94
2023 12 01 02  04 56 33.630   +01 45 54.37  .47435 1.4386 158.7 21.3  49d  94
2023 12 01 03  04 56 31.810   +01 44 46.89  .47406 1.4383 158.7 21.3  49d  94
2023 12 01 04  04 56 29.986   +01 43 39.38  .47376 1.4380 158.7 21.3  49d  94
2023 12 01 05  04 56 28.158   +01 42 31.84  .47347 1.4377 158.7 21.3  49d  94
2023 12 01 06  04 56 26.327   +01 41 24.27  .47318 1.4374 158.7 21.3  49d  94
2023 12 01 07  04 56 24.492   +01 40 16.66  .47289 1.4371 158.7 21.3  49d  94
2023 12 01 08  04 56 22.654   +01 39 09.03  .47259 1.4367 158.7 21.3  49d  94
2023 12 01 09  04 56 20.812   +01 38 01.36  .47230 1.4364 158.7 21.3  49d  94
2023 12 01 10  04 56 18.967   +01 36 53.67  .47201 1.4361 158.7 21.3  49d  94
2023 12 01 11  04 56 17.118   +01 35 45.94  .47172 1.4358 158.7 21.3  49d  94
2023 12 01 12  04 56 15.266   +01 34 38.18  .47143 1.4355 158.7 21.3  49d  93
2023 12 01 13  04 56 13.410   +01 33 30.40  .47114 1.4352 158.7 21.3  49d  93
2023 12 01 14  04 56 11.551   +01 32 22.58  .47085 1.4349 158.7 21.3  49d  93
2023 12 01 15  04 56 09.688   +01 31 14.73  .47055 1.4346 158.7 21.3  49d  93
2023 12 01 16  04 56 07.822   +01 30 06.86  .47026 1.4343 158.6 21.3  49d  93
2023 12 01 17  04 56 05.952   +01 28 58.95  .46998 1.4340 158.6 21.3  49d  92
2023 12 01 18  04 56 04.079   +01 27 51.01  .46969 1.4337 158.6 21.3  50d  92
2023 12 01 19  04 56 02.203   +01 26 43.04  .46940 1.4334 158.6 21.3  50d  92
2023 12 01 20  04 56 00.322   +01 25 35.05  .46911 1.4331 158.6 21.3  50d  92
2023 12 01 21  04 55 58.439   +01 24 27.02  .46882 1.4328 158.6 21.3  50d  91
2023 12 01 22  04 55 56.552   +01 23 18.96  .46853 1.4325 158.6 21.2  51d  91
2023 12 01 23  04 55 54.661   +01 22 10.88  .46824 1.4322 158.6 21.2  51d  91
2023 12 02 00  04 55 52.767   +01 21 02.76  .46796 1.4319 158.6 21.2  51d  91
2023 12 02 01  04 55 50.870   +01 19 54.62  .46767 1.4316 158.6 21.2  51d  91
2023 12 02 02  04 55 48.969   +01 18 46.44  .46738 1.4313 158.6 21.2  51d  91
2023 12 02 03  04 55 47.065   +01 17 38.24  .46710 1.4310 158.6 21.2  51d  91
2023 12 02 04  04 55 45.157   +01 16 30.01  .46681 1.4307 158.5 21.2  52d  91
2023 12 02 05  04 55 43.246   +01 15 21.75  .46652 1.4304 158.5 21.2  52d  91